| time (UTC) | temp F | wind direction | speed knots | gust knots | rain 1hr in | rain 24hr in | rain mn in | humidity % | barometer mb |
| 20260831160530 | 85 | 35 | 0.9 | 4.3 | 0.00 | 0.00 | 0.00 | 71 | 1021.9 |
| 20260831160053 | 84 | 143 | 1.7 | 3.5 | 0.00 | 0.00 | 0.00 | 73 | 1022.0 |
| 20260831155531 | 84 | 115 | 0.9 | 3.5 | 0.00 | 0.00 | 0.00 | 73 | 1021.9 |
| 20260831155034 | 84 | 112 | 0.9 | 3.5 | 0.00 | 0.00 | 0.00 | 72 | 1022.0 |
| 20260831154620 | 84 | 104 | 1.7 | 3.5 | 0.00 | 0.00 | 0.00 | 75 | 1022.0 |
| 20260831154031 | 83 | 0 | 0.0 | 2.6 | 0.00 | 0.00 | 0.00 | 75 | 1021.9 |
| 20260831153533 | 83 | 0 | 0.9 | 2.6 | 0.00 | 0.00 | 0.00 | 74 | 1021.9 |
| 20260831153050 | 83 | 289 | 0.0 | 2.6 | 0.00 | 0.00 | 0.00 | 75 | 1022.1 |
| 20260831152533 | 83 | 0 | 0.0 | 1.7 | 0.00 | 0.00 | 0.00 | 75 | 1022.0 |
| 20260831152027 | 83 | 0 | 0.9 | 2.6 | 0.00 | 0.00 | 0.00 | 75 | 1022.0 |
| 20260831151547 | 83 | 0 | 0.0 | 4.3 | 0.00 | 0.00 | 0.00 | 76 | 1022.0 |
| 20260831151028 | 83 | 290 | 0.0 | 4.3 | 0.00 | 0.00 | 0.00 | 77 | 1022.0 |
| 20260831150530 | 83 | 292 | 1.7 | 4.3 | 0.00 | 0.00 | 0.00 | 77 | 1021.9 |
| 20260831150042 | 82 | 308 | 0.9 | 4.3 | 0.00 | 0.00 | 0.00 | 79 | 1021.9 |
| 20260831145530 | 82 | 344 | 0.9 | 4.3 | 0.00 | 0.00 | 0.00 | 79 | 1021.9 |
| 20260831145027 | 82 | 302 | 0.0 | 3.5 | 0.00 | 0.00 | 0.00 | 80 | 1021.9 |
| 20260831144553 | 81 | 205 | 0.0 | 5.2 | 0.00 | 0.00 | 0.00 | 80 | 1021.9 |
| 20260831144030 | 81 | 289 | 0.0 | 5.2 | 0.00 | 0.00 | 0.00 | 80 | 1021.9 |
| 20260831143532 | 81 | 299 | 0.9 | 3.5 | 0.00 | 0.00 | 0.00 | 81 | 1022.0 |
| 20260831143053 | 80 | 0 | 0.0 | 2.6 | 0.00 | 0.00 | 0.00 | 81 | 1022.0 |
| 20260831142530 | 80 | 300 | 0.0 | 3.5 | 0.00 | 0.00 | 0.00 | 81 | 1022.1 |
| 20260831142031 | 80 | 298 | 0.9 | 6.1 | 0.00 | 0.00 | 0.00 | 82 | 1022.1 |
| 20260831141544 | 80 | 296 | 1.7 | 6.1 | 0.00 | 0.00 | 0.00 | 82 | 1022.1 |
| 20260831141029 | 79 | 240 | 1.7 | 5.2 | 0.00 | 0.00 | 0.00 | 83 | 1022.1 |
| 20260831140528 | 79 | 223 | 2.6 | 5.2 | 0.00 | 0.00 | 0.00 | 83 | 1022.1 |
| 20260831140043 | 79 | 302 | 1.7 | 3.5 | 0.00 | 0.00 | 0.00 | 84 | 1021.9 |
| 20260831135530 | 78 | 185 | 0.9 | 3.5 | 0.00 | 0.00 | 0.00 | 84 | 1021.9 |
| 20260831135033 | 78 | 182 | 0.0 | 1.7 | 0.00 | 0.00 | 0.00 | 85 | 1022.0 |
| 20260831134543 | 78 | 0 | 0.0 | 2.6 | 0.00 | 0.00 | 0.00 | 85 | 1022.0 |
| 20260831134029 | 78 | 0 | 0.0 | 2.6 | 0.00 | 0.00 | 0.00 | 85 | 1021.9 |
| 20260831133529 | 78 | 0 | 0.0 | 2.6 | 0.00 | 0.00 | 0.00 | 86 | 1021.9 |
| 20260831133046 | 77 | 124 | 0.0 | 2.6 | 0.00 | 0.00 | 0.00 | 87 | 1021.9 |
| 20260831132529 | 77 | 0 | 0.9 | 3.5 | 0.00 | 0.00 | 0.00 | 87 | 1021.9 |
| 20260831132030 | 77 | 0 | 0.9 | 3.5 | 0.00 | 0.00 | 0.00 | 88 | 1022.0 |
| 20260831131551 | 76 | 46 | 0.9 | 3.5 | 0.00 | 0.00 | 0.00 | 89 | 1022.0 |
| 20260831131027 | 75 | 60 | 0.9 | 3.5 | 0.00 | 0.00 | 0.00 | 89 | 1022.1 |
| 20260831130530 | 75 | 49 | 0.9 | 3.5 | 0.00 | 0.00 | 0.00 | 89 | 1022.1 |
| 20260831130055 | 75 | 65 | 1.7 | 3.5 | 0.00 | 0.00 | 0.00 | 90 | 1022.0 |
| 20260831125533 | 74 | 69 | 0.9 | 3.5 | 0.00 | 0.00 | 0.00 | 91 | 1022.1 |
| 20260831125029 | 74 | 78 | 1.7 | 3.5 | 0.00 | 0.00 | 0.00 | 91 | 1022.1 |
| 20260831124549 | 73 | 87 | 0.0 | 2.6 | 0.00 | 0.00 | 0.00 | 92 | 1022.0 |
| 20260831124029 | 73 | 93 | 0.0 | 2.6 | 0.00 | 0.00 | 0.00 | 92 | 1022.0 |
| 20260831123532 | 73 | 0 | 0.9 | 2.6 | 0.00 | 0.00 | 0.00 | 92 | 1021.8 |
| 20260831123050 | 72 | 0 | 0.0 | 2.6 | 0.00 | 0.00 | 0.00 | 93 | 1021.9 |
| 20260831122528 | 72 | 94 | 0.0 | 1.7 | 0.00 | 0.00 | 0.00 | 93 | 1021.8 |
| 20260831122028 | 72 | 0 | 0.0 | 1.7 | 0.00 | 0.00 | 0.00 | 93 | 1021.8 |
| 20260831121552 | 72 | 92 | 0.0 | 0.0 | 0.00 | 0.00 | 0.00 | 93 | 1021.7 |
| 20260831121030 | 72 | 0 | 0.0 | 0.0 | 0.00 | 0.00 | 0.00 | 93 | 1021.7 |
| 20260831120535 | 72 | 0 | 0.0 | 0.0 | 0.00 | 0.00 | 0.00 | 92 | 1021.6 |
| 20260831120056 | 71 | 0 | 0.0 | 0.0 | 0.00 | 0.00 | 0.00 | 92 | 1021.6 |
| 20260831115536 | 71 | 0 | 0.0 | 0.0 | 0.00 | 0.00 | 0.00 | 92 | 1021.6 |
| 20260831115029 | 71 | 0 | 0.0 | 0.0 | 0.00 | 0.00 | 0.00 | 92 | 1021.5 |
| 20260831114558 | 71 | 0 | 0.0 | 0.0 | 0.00 | 0.00 | 0.00 | 92 | 1021.4 |
| 20260831114030 | 71 | 0 | 0.0 | 0.0 | 0.00 | 0.00 | 0.00 | 92 | 1021.4 |
| 20260831113532 | 71 | 0 | 0.0 | 0.0 | 0.00 | 0.00 | 0.00 | 92 | 1021.3 |
| 20260831113116 | 71 | 0 | 0.0 | 0.0 | 0.00 | 0.00 | 0.00 | 92 | 1021.4 |
| 20260831112533 | 71 | 0 | 0.0 | 0.0 | 0.00 | 0.00 | 0.00 | 92 | 1021.3 |
| 20260831112031 | 71 | 0 | 0.0 | 0.0 | 0.00 | 0.00 | 0.00 | 91 | 1021.3 |
| 20260831111551 | 71 | 0 | 0.0 | 0.0 | 0.00 | 0.00 | 0.00 | 91 | 1021.3 |
| 20260831111030 | 71 | 0 | 0.0 | 0.0 | 0.00 | 0.00 | 0.00 | 91 | 1021.3 |
| 20260831110530 | 72 | 0 | 0.0 | 0.0 | 0.00 | 0.00 | 0.00 | 92 | 1021.1 |
| 20260831110048 | 72 | 0 | 0.0 | 0.0 | 0.00 | 0.00 | 0.00 | 92 | 1021.1 |
| 20260831105531 | 72 | 0 | 0.0 | 0.0 | 0.00 | 0.00 | 0.00 | 92 | 1021.0 |
| 20260831105029 | 72 | 0 | 0.0 | 0.0 | 0.00 | 0.00 | 0.00 | 92 | 1020.9 |
| 20260831104548 | 72 | 0 | 0.0 | 0.0 | 0.00 | 0.00 | 0.00 | 91 | 1020.6 |
| 20260831104034 | 72 | 0 | 0.0 | 0.0 | 0.00 | 0.00 | 0.00 | 91 | 1020.6 |
| 20260831103533 | 72 | 0 | 0.0 | 0.0 | 0.00 | 0.00 | 0.00 | 91 | 1020.6 |
| 20260831103049 | 72 | 0 | 0.0 | 0.0 | 0.00 | 0.00 | 0.00 | 91 | 1020.6 |
| 20260831102530 | 72 | 0 | 0.0 | 0.0 | 0.00 | 0.00 | 0.00 | 91 | 1020.6 |
| 20260831102031 | 72 | 0 | 0.0 | 0.0 | 0.00 | 0.00 | 0.00 | 91 | 1020.5 |
| 20260831101546 | 72 | 0 | 0.0 | 0.0 | 0.00 | 0.00 | 0.00 | 91 | 1020.4 |
| 20260831101032 | 72 | 0 | 0.0 | 0.0 | 0.00 | 0.00 | 0.00 | 91 | 1020.4 |
| 20260831100530 | 72 | 0 | 0.0 | 0.0 | 0.00 | 0.00 | 0.00 | 91 | 1020.4 |
| 20260831100050 | 72 | 0 | 0.0 | 0.0 | 0.00 | 0.00 | 0.00 | 91 | 1020.4 |
| 20260831095532 | 72 | 0 | 0.0 | 0.0 | 0.00 | 0.00 | 0.00 | 91 | 1020.4 |
| 20260831095030 | 72 | 0 | 0.0 | 0.0 | 0.00 | 0.00 | 0.00 | 91 | 1020.3 |
| 20260831094559 | 72 | 0 | 0.0 | 0.0 | 0.00 | 0.00 | 0.00 | 91 | 1020.3 |
| 20260831094030 | 72 | 0 | 0.0 | 0.0 | 0.00 | 0.00 | 0.00 | 91 | 1020.2 |
| 20260831093533 | 72 | 0 | 0.0 | 0.0 | 0.00 | 0.00 | 0.00 | 90 | 1020.3 |
| 20260831093054 | 72 | 0 | 0.0 | 0.0 | 0.00 | 0.00 | 0.00 | 91 | 1020.3 |
| 20260831092530 | 72 | 0 | 0.0 | 0.0 | 0.00 | 0.00 | 0.00 | 91 | 1020.3 |
| 20260831092031 | 72 | 0 | 0.0 | 0.0 | 0.00 | 0.00 | 0.00 | 90 | 1020.3 |
| 20260831091550 | 73 | 0 | 0.0 | 0.0 | 0.00 | 0.00 | 0.00 | 90 | 1020.3 |
| 20260831091030 | 73 | 0 | 0.0 | 0.0 | 0.00 | 0.00 | 0.00 | 91 | 1020.4 |
| 20260831090532 | 73 | 0 | 0.0 | 0.0 | 0.00 | 0.00 | 0.00 | 90 | 1020.4 |
| 20260831090048 | 73 | 0 | 0.0 | 0.0 | 0.00 | 0.00 | 0.00 | 90 | 1020.3 |
| 20260831085532 | 73 | 0 | 0.0 | 0.0 | 0.00 | 0.00 | 0.00 | 90 | 1020.3 |
| 20260831085030 | 73 | 0 | 0.0 | 0.0 | 0.00 | 0.00 | 0.00 | 90 | 1020.2 |
| 20260831084543 | 73 | 0 | 0.0 | 0.0 | 0.00 | 0.00 | 0.00 | 90 | 1020.3 |
| 20260831084028 | 73 | 0 | 0.0 | 0.0 | 0.00 | 0.00 | 0.00 | 90 | 1020.2 |
| 20260831083528 | 73 | 0 | 0.0 | 0.0 | 0.00 | 0.00 | 0.00 | 90 | 1020.3 |
| 20260831083044 | 73 | 0 | 0.0 | 0.0 | 0.00 | 0.00 | 0.00 | 90 | 1020.2 |
| 20260831082532 | 73 | 0 | 0.0 | 0.0 | 0.00 | 0.00 | 0.00 | 90 | 1020.1 |
| 20260831082028 | 73 | 0 | 0.0 | 0.0 | 0.00 | 0.00 | 0.00 | 89 | 1020.0 |
| 20260831081557 | 73 | 0 | 0.0 | 0.0 | 0.00 | 0.00 | 0.00 | 89 | 1020.0 |
| 20260831081031 | 73 | 0 | 0.0 | 0.0 | 0.00 | 0.00 | 0.00 | 89 | 1020.1 |
| 20260831080533 | 73 | 0 | 0.0 | 0.0 | 0.00 | 0.00 | 0.00 | 89 | 1020.0 |
| 20260831080046 | 73 | 0 | 0.0 | 0.0 | 0.00 | 0.00 | 0.00 | 89 | 1020.0 |
| 20260831075532 | 73 | 0 | 0.0 | 0.0 | 0.00 | 0.00 | 0.00 | 89 | 1020.0 |
| 20260831075029 | 73 | 0 | 0.0 | 0.0 | 0.00 | 0.00 | 0.00 | 89 | 1019.9 |
| 20260831074547 | 73 | 0 | 0.0 | 0.0 | 0.00 | 0.00 | 0.00 | 89 | 1019.9 |
| 20260831074031 | 73 | 0 | 0.0 | 0.0 | 0.00 | 0.00 | 0.00 | 89 | 1019.9 |
| 20260831073532 | 73 | 0 | 0.0 | 0.0 | 0.00 | 0.00 | 0.00 | 89 | 1019.9 |
| 20260831073043 | 73 | 0 | 0.0 | 0.0 | 0.00 | 0.00 | 0.00 | 88 | 1020.0 |
| 20260831072533 | 73 | 0 | 0.0 | 0.0 | 0.00 | 0.00 | 0.00 | 88 | 1020.0 |
| 20260831072032 | 73 | 0 | 0.0 | 0.0 | 0.00 | 0.00 | 0.00 | 88 | 1020.0 |
| 20260831071556 | 74 | 0 | 0.0 | 0.0 | 0.00 | 0.00 | 0.00 | 88 | 1020.0 |
| 20260831071030 | 74 | 0 | 0.0 | 0.0 | 0.00 | 0.00 | 0.00 | 88 | 1019.8 |
| 20260831070530 | 74 | 0 | 0.0 | 2.6 | 0.00 | 0.00 | 0.00 | 88 | 1019.8 |
| 20260831070048 | 74 | 0 | 0.0 | 2.6 | 0.00 | 0.00 | 0.00 | 88 | 1019.7 |
| 20260831065532 | 74 | 0 | 0.0 | 2.6 | 0.00 | 0.00 | 0.00 | 88 | 1019.8 |
| 20260831065032 | 74 | 0 | 0.0 | 1.7 | 0.00 | 0.00 | 0.00 | 88 | 1019.8 |
| 20260831064548 | 74 | 107 | 0.0 | 1.7 | 0.00 | 0.00 | 0.00 | 87 | 1019.8 |
| 20260831064033 | 74 | 0 | 0.0 | 1.7 | 0.00 | 0.00 | 0.00 | 87 | 1019.8 |
| 20260831063528 | 74 | 0 | 0.0 | 1.7 | 0.00 | 0.00 | 0.00 | 87 | 1019.8 |
| 20260831063042 | 74 | 107 | 0.0 | 1.7 | 0.00 | 0.00 | 0.00 | 87 | 1019.8 |
| 20260831062609 | 74 | 0 | 0.0 | 1.7 | 0.00 | 0.00 | 0.00 | 87 | 1019.9 |
| 20260831062033 | 74 | 107 | 0.0 | 1.7 | 0.00 | 0.00 | 0.00 | 87 | 1019.9 |
| 20260831061603 | 74 | 0 | 0.0 | 0.0 | 0.00 | 0.00 | 0.00 | 87 | 1020.0 |
| 20260831061032 | 74 | 0 | 0.0 | 0.0 | 0.00 | 0.00 | 0.00 | 86 | 1019.9 |
| 20260831060531 | 74 | 0 | 0.0 | 0.0 | 0.00 | 0.00 | 0.00 | 86 | 1019.9 |
| 20260831060051 | 75 | 0 | 0.0 | 0.0 | 0.00 | 0.00 | 0.00 | 86 | 1019.9 |
| 20260831055535 | 75 | 0 | 0.0 | 0.0 | 0.00 | 0.00 | 0.00 | 86 | 1019.9 |
| 20260831055030 | 75 | 0 | 0.0 | 0.0 | 0.00 | 0.00 | 0.00 | 86 | 1020.0 |
| 20260831054544 | 75 | 0 | 0.0 | 0.0 | 0.00 | 0.00 | 0.00 | 86 | 1020.1 |
| 20260831054035 | 75 | 0 | 0.0 | 0.0 | 0.00 | 0.00 | 0.00 | 86 | 1020.1 |
| 20260831053529 | 75 | 0 | 0.0 | 0.0 | 0.00 | 0.00 | 0.00 | 85 | 1020.1 |
| 20260831053042 | 75 | 0 | 0.0 | 0.0 | 0.00 | 0.00 | 0.00 | 86 | 1020.1 |
| 20260831052534 | 75 | 0 | 0.0 | 0.0 | 0.00 | 0.00 | 0.00 | 85 | 1020.1 |
| 20260831052034 | 75 | 0 | 0.0 | 0.0 | 0.00 | 0.00 | 0.00 | 85 | 1020.1 |
| 20260831051559 | 75 | 0 | 0.0 | 0.0 | 0.00 | 0.00 | 0.00 | 85 | 1020.1 |
| 20260831051032 | 75 | 0 | 0.0 | 0.0 | 0.00 | 0.00 | 0.00 | 85 | 1020.1 |
| 20260831050531 | 75 | 0 | 0.0 | 0.0 | 0.00 | 0.00 | 0.00 | 84 | 1020.2 |
| 20260831050048 | 75 | 0 | 0.0 | 0.0 | 0.00 | 0.00 | 0.00 | 84 | 1020.2 |
| 20260831045531 | 76 | 0 | 0.0 | 0.0 | 0.00 | 0.00 | 0.00 | 84 | 1020.2 |
| 20260831045030 | 76 | 0 | 0.0 | 0.0 | 0.00 | 0.00 | 0.00 | 84 | 1020.2 |
| 20260831044546 | 76 | 0 | 0.0 | 0.9 | 0.00 | 0.00 | 0.00 | 83 | 1020.1 |
| 20260831044031 | 76 | 0 | 0.0 | 1.7 | 0.00 | 0.00 | 0.00 | 83 | 1020.1 |
| 20260831043528 | 76 | 0 | 0.0 | 1.7 | 0.00 | 0.00 | 0.00 | 83 | 1020.1 |
| 20260831043046 | 76 | 107 | 0.0 | 0.0 | 0.00 | 0.00 | 0.00 | 83 | 1020.1 |
| 20260831042531 | 76 | 0 | 0.0 | 0.0 | 0.00 | 0.00 | 0.00 | 83 | 1020.1 |
| 20260831042031 | 76 | 0 | 0.0 | 0.0 | 0.00 | 0.00 | 0.00 | 83 | 1020.1 |
| 20260831041555 | 76 | 0 | 0.0 | 0.0 | 0.00 | 0.00 | 0.00 | 82 | 1020.2 |
| 20260831041031 | 76 | 0 | 0.0 | 0.0 | 0.00 | 0.00 | 0.00 | 82 | 1020.3 |
| 20260831040533 | 76 | 0 | 0.0 | 0.0 | 0.00 | 0.00 | 0.00 | 82 | 1020.2 |
| 20260831040046 | 76 | 0 | 0.0 | 0.0 | 0.00 | 0.00 | 0.00 | 81 | 1020.2 |
| 20260831035536 | 76 | 0 | 0.0 | 0.0 | 0.00 | 0.00 | 0.00 | 81 | 1020.3 |
| 20260831035029 | 77 | 0 | 0.0 | 0.0 | 0.00 | 0.00 | 0.00 | 81 | 1020.2 |
| 20260831034548 | 77 | 0 | 0.0 | 0.0 | 0.00 | 0.00 | 0.00 | 81 | 1020.2 |
| 20260831034030 | 77 | 0 | 0.0 | 0.0 | 0.00 | 0.00 | 0.00 | 81 | 1020.2 |
| 20260831033533 | 77 | 0 | 0.0 | 0.0 | 0.00 | 0.00 | 0.00 | 80 | 1020.2 |
| 20260831033058 | 77 | 0 | 0.0 | 0.0 | 0.00 | 0.00 | 0.00 | 80 | 1020.3 |
| 20260831032529 | 77 | 0 | 0.0 | 2.6 | 0.00 | 0.00 | 0.00 | 80 | 1020.2 |
| 20260831032032 | 77 | 0 | 0.0 | 2.6 | 0.00 | 0.00 | 0.00 | 80 | 1020.2 |
| 20260831031551 | 77 | 0 | 0.0 | 1.7 | 0.00 | 0.00 | 0.00 | 80 | 1020.2 |
| 20260831031032 | 77 | 0 | 0.0 | 0.0 | 0.00 | 0.00 | 0.00 | 80 | 1020.3 |
| 20260831030530 | 77 | 0 | 0.0 | 0.0 | 0.00 | 0.00 | 0.00 | 80 | 1020.5 |
| 20260831030048 | 77 | 0 | 0.0 | 0.0 | 0.00 | 0.00 | 0.00 | 80 | 1020.4 |
| 20260831025530 | 77 | 0 | 0.0 | 0.0 | 0.00 | 0.00 | 0.00 | 79 | 1020.4 |
| 20260831025030 | 78 | 0 | 0.0 | 0.0 | 0.00 | 0.00 | 0.00 | 79 | 1020.4 |
| 20260831024543 | 78 | 0 | 0.0 | 0.0 | 0.00 | 0.00 | 0.00 | 79 | 1020.4 |
| 20260831024031 | 78 | 0 | 0.0 | 0.0 | 0.00 | 0.00 | 0.00 | 79 | 1020.4 |
| 20260831023531 | 78 | 0 | 0.0 | 0.0 | 0.00 | 0.00 | 0.00 | 79 | 1020.4 |
| 20260831023055 | 78 | 0 | 0.0 | 0.0 | 0.00 | 0.00 | 0.00 | 79 | 1020.4 |
| 20260831022529 | 78 | 0 | 0.0 | 0.0 | 0.00 | 0.00 | 0.00 | 78 | 1020.4 |
| 20260831022031 | 78 | 0 | 0.0 | 0.0 | 0.00 | 0.00 | 0.00 | 78 | 1020.4 |
| 20260831021551 | 78 | 0 | 0.0 | 0.0 | 0.00 | 0.00 | 0.00 | 78 | 1020.4 |
| 20260831021031 | 78 | 0 | 0.0 | 0.0 | 0.00 | 0.00 | 0.00 | 78 | 1020.4 |
| 20260831020533 | 78 | 0 | 0.0 | 0.0 | 0.00 | 0.00 | 0.00 | 78 | 1020.3 |
| 20260831020053 | 79 | 0 | 0.0 | 0.0 | 0.00 | 0.00 | 0.00 | 78 | 1020.2 |
| 20260831015530 | 79 | 0 | 0.0 | 0.0 | 0.00 | 0.00 | 0.00 | 77 | 1020.1 |
| 20260831015031 | 79 | 0 | 0.0 | 0.0 | 0.00 | 0.00 | 0.00 | 77 | 1020.1 |
| 20260831014543 | 79 | 0 | 0.0 | 0.0 | 0.00 | 0.00 | 0.00 | 77 | 1020.0 |
| 20260831014032 | 79 | 0 | 0.0 | 0.0 | 0.00 | 0.00 | 0.00 | 76 | 1019.9 |
| 20260831013529 | 79 | 0 | 0.0 | 0.0 | 0.00 | 0.00 | 0.00 | 76 | 1019.9 |
| 20260831013106 | 80 | 0 | 0.0 | 0.9 | 0.00 | 0.00 | 0.00 | 75 | 1019.9 |
| 20260831012534 | 80 | 0 | 0.0 | 0.9 | 0.00 | 0.00 | 0.00 | 75 | 1019.9 |
| 20260831012032 | 80 | 0 | 0.0 | 0.9 | 0.00 | 0.00 | 0.00 | 75 | 1019.9 |
| 20260831011549 | 80 | 0 | 0.0 | 0.9 | 0.00 | 0.00 | 0.00 | 74 | 1019.9 |
| 20260831011031 | 81 | 0 | 0.0 | 0.9 | 0.00 | 0.00 | 0.00 | 74 | 1019.7 |
| 20260831010531 | 81 | 0 | 0.0 | 0.9 | 0.00 | 0.00 | 0.00 | 73 | 1019.5 |
| 20260831010052 | 81 | 0 | 0.0 | 0.9 | 0.00 | 0.00 | 0.00 | 73 | 1019.5 |
| 20260831005531 | 81 | 0 | 0.0 | 0.0 | 0.00 | 0.00 | 0.00 | 72 | 1019.5 |
| 20260831005032 | 82 | 0 | 0.0 | 0.0 | 0.00 | 0.00 | 0.00 | 71 | 1019.5 |
| 20260831004556 | 82 | 0 | 0.0 | 0.0 | 0.00 | 0.00 | 0.00 | 70 | 1019.3 |
| 20260831004032 | 82 | 0 | 0.0 | 0.0 | 0.00 | 0.00 | 0.00 | 70 | 1019.4 |
| 20260831003534 | 83 | 0 | 0.0 | 0.0 | 0.00 | 0.00 | 0.00 | 69 | 1019.4 |
| 20260831003104 | 83 | 0 | 0.0 | 0.0 | 0.00 | 0.00 | 0.00 | 68 | 1019.3 |
| 20260831002530 | 83 | 0 | 0.0 | 0.0 | 0.00 | 0.00 | 0.00 | 68 | 1019.3 |
| 20260831002030 | 84 | 0 | 0.0 | 0.0 | 0.00 | 0.00 | 0.00 | 67 | 1019.3 |
| 20260831001552 | 84 | 0 | 0.0 | 0.0 | 0.00 | 0.00 | 0.00 | 66 | 1019.2 |
| 20260831001032 | 85 | 0 | 0.0 | 0.0 | 0.00 | 0.00 | 0.00 | 66 | 1019.2 |
| 20260831000530 | 85 | 0 | 0.0 | 0.0 | 0.00 | 0.00 | 0.00 | 65 | 1019.3 |
| 20260831000047 | 85 | 0 | 0.0 | 0.9 | 0.00 | 0.00 | 0.00 | 65 | 1019.2 |
| 20260830235530 | 86 | 0 | 0.0 | 1.7 | 0.00 | 0.00 | 0.00 | 64 | 1019.3 |
| 20260830235030 | 86 | 0 | 0.0 | 1.7 | 0.00 | 0.00 | 0.00 | 64 | 1019.3 |
| 20260830234552 | 86 | 0 | 0.0 | 1.7 | 0.00 | 0.00 | 0.00 | 63 | 1019.3 |
| 20260830234031 | 86 | 0 | 0.0 | 1.7 | 0.00 | 0.00 | 0.00 | 62 | 1019.2 |
| 20260830233531 | 86 | 0 | 0.0 | 1.7 | 0.00 | 0.00 | 0.00 | 62 | 1019.3 |
| 20260830233100 | 87 | 0 | 0.0 | 2.6 | 0.00 | 0.00 | 0.00 | 62 | 1019.2 |
| 20260830232534 | 87 | 108 | 0.9 | 2.6 | 0.00 | 0.00 | 0.00 | 61 | 1019.2 |
| 20260830232031 | 87 | 0 | 0.0 | 2.6 | 0.00 | 0.00 | 0.00 | 61 | 1019.2 |
| 20260830231544 | 87 | 0 | 0.0 | 2.6 | 0.00 | 0.00 | 0.00 | 61 | 1019.1 |
| 20260830231032 | 88 | 115 | 0.0 | 3.5 | 0.00 | 0.00 | 0.00 | 61 | 1019.0 |
| 20260830230531 | 88 | 0 | 0.9 | 3.5 | 0.00 | 0.00 | 0.00 | 60 | 1019.0 |
| 20260830230042 | 88 | 0 | 0.0 | 2.6 | 0.00 | 0.00 | 0.00 | 60 | 1019.0 |
| 20260830225531 | 88 | 105 | 0.0 | 5.2 | 0.00 | 0.00 | 0.00 | 59 | 1019.0 |
| 20260830225034 | 88 | 0 | 1.7 | 7.8 | 0.00 | 0.00 | 0.00 | 59 | 1019.2 |
| 20260830224548 | 88 | 105 | 2.6 | 7.8 | 0.00 | 0.00 | 0.00 | 58 | 1019.2 |
| 20260830224028 | 88 | 147 | 1.7 | 6.1 | 0.00 | 0.00 | 0.00 | 58 | 1019.0 |
| 20260830223531 | 88 | 111 | 2.6 | 7.8 | 0.00 | 0.00 | 0.00 | 58 | 1019.1 |
| 20260830223107 | 88 | 55 | 4.3 | 7.8 | 0.00 | 0.00 | 0.00 | 59 | 1019.0 |
| 20260830222532 | 88 | 114 | 2.6 | 7.8 | 0.00 | 0.00 | 0.00 | 58 | 1018.9 |
| 20260830222030 | 89 | 0 | 1.7 | 7.0 | 0.00 | 0.00 | 0.00 | 59 | 1019.1 |
| 20260830221549 | 88 | 123 | 0.9 | 3.5 | 0.00 | 0.00 | 0.00 | 58 | 1019.0 |
| 20260830221029 | 88 | 134 | 0.9 | 4.3 | 0.00 | 0.00 | 0.00 | 58 | 1018.9 |
| 20260830220531 | 88 | 134 | 0.0 | 5.2 | 0.00 | 0.00 | 0.00 | 58 | 1019.0 |
| 20260830220044 | 88 | 88 | 2.6 | 6.1 | 0.00 | 0.00 | 0.00 | 58 | 1019.0 |
| 20260830215531 | 88 | 82 | 0.9 | 6.1 | 0.00 | 0.00 | 0.00 | 58 | 1019.0 |
| 20260830215031 | 88 | 67 | 0.0 | 5.2 | 0.00 | 0.00 | 0.00 | 60 | 1019.0 |
| 20260830214604 | 88 | 126 | 0.0 | 5.2 | 0.00 | 0.00 | 0.00 | 59 | 1019.1 |
| 20260830214031 | 89 | 87 | 1.7 | 6.1 | 0.00 | 0.00 | 0.00 | 58 | 1019.3 |
| 20260830213528 | 89 | 0 | 1.7 | 6.1 | 0.00 | 0.00 | 0.00 | 58 | 1019.2 |
| 20260830213045 | 89 | 23 | 1.7 | 3.5 | 0.00 | 0.00 | 0.00 | 58 | 1019.1 |
| 20260830212531 | 89 | 0 | 0.9 | 5.2 | 0.00 | 0.00 | 0.00 | 58 | 1019.2 |
| 20260830212031 | 89 | 80 | 0.9 | 7.0 | 0.00 | 0.00 | 0.00 | 57 | 1019.1 |
| 20260830211543 | 89 | 82 | 2.6 | 7.0 | 0.00 | 0.00 | 0.00 | 58 | 1019.2 |
| 20260830211032 | 89 | 71 | 3.5 | 9.6 | 0.00 | 0.00 | 0.00 | 58 | 1019.3 |
| 20260830210532 | 89 | 111 | 4.3 | 9.6 | 0.00 | 0.00 | 0.00 | 57 | 1019.2 |
| 20260830210105 | 89 | 109 | 1.7 | 5.2 | 0.00 | 0.00 | 0.00 | 58 | 1019.3 |
| 20260830205532 | 89 | 32 | 0.0 | 5.2 | 0.00 | 0.00 | 0.00 | 58 | 1019.3 |
| 20260830205031 | 89 | 117 | 0.9 | 5.2 | 0.00 | 0.00 | 0.00 | 57 | 1019.2 |
| 20260830204558 | 89 | 113 | 2.6 | 8.7 | 0.00 | 0.00 | 0.00 | 56 | 1019.4 |
| 20260830204031 | 89 | 90 | 2.6 | 8.7 | 0.00 | 0.00 | 0.00 | 57 | 1019.3 |
| 20260830203531 | 89 | 139 | 2.6 | 7.0 | 0.00 | 0.00 | 0.00 | 57 | 1019.5 |
| 20260830203043 | 89 | 113 | 0.9 | 5.2 | 0.00 | 0.00 | 0.00 | 58 | 1019.4 |
| 20260830202532 | 89 | 212 | 1.7 | 5.2 | 0.00 | 0.00 | 0.00 | 59 | 1019.5 |
| 20260830202033 | 88 | 104 | 1.7 | 6.1 | 0.00 | 0.00 | 0.00 | 60 | 1019.5 |
| 20260830201542 | 88 | 37 | 1.7 | 8.7 | 0.00 | 0.00 | 0.00 | 59 | 1019.5 |
| 20260830201034 | 88 | 101 | 1.7 | 8.7 | 0.00 | 0.00 | 0.00 | 59 | 1019.6 |
| 20260830200534 | 89 | 111 | 4.3 | 8.7 | 0.00 | 0.00 | 0.00 | 58 | 1019.6 |
| 20260830200055 | 89 | 136 | 2.6 | 7.0 | 0.00 | 0.00 | 0.00 | 59 | 1019.7 |
| 20260830195531 | 89 | 101 | 2.6 | 7.0 | 0.00 | 0.00 | 0.00 | 59 | 1019.7 |
| 20260830195031 | 89 | 140 | 0.9 | 8.7 | 0.00 | 0.00 | 0.00 | 61 | 1019.8 |
| 20260830194554 | 89 | 52 | 3.5 | 8.7 | 0.00 | 0.00 | 0.00 | 60 | 1020.0 |
| 20260830194031 | 88 | 109 | 1.7 | 9.6 | 0.00 | 0.00 | 0.00 | 61 | 1020.0 |
| 20260830193529 | 88 | 153 | 3.5 | 9.6 | 0.00 | 0.00 | 0.00 | 61 | 1020.1 |
| 20260830193047 | 88 | 0 | 2.6 | 7.8 | 0.00 | 0.00 | 0.00 | 61 | 1020.2 |
| 20260830192532 | 88 | 146 | 1.7 | 7.8 | 0.00 | 0.00 | 0.00 | 61 | 1020.3 |
| 20260830192031 | 88 | 36 | 2.6 | 7.8 | 0.00 | 0.00 | 0.00 | 61 | 1020.2 |
| 20260830191545 | 89 | 0 | 1.7 | 7.0 | 0.00 | 0.00 | 0.00 | 62 | 1020.4 |
| 20260830191030 | 89 | 91 | 1.7 | 7.8 | 0.00 | 0.00 | 0.00 | 62 | 1020.4 |
| 20260830190531 | 88 | 57 | 3.5 | 7.8 | 0.00 | 0.00 | 0.00 | 62 | 1020.5 |
| 20260830190124 | 88 | 51 | 0.9 | 5.2 | 0.00 | 0.00 | 0.00 | 63 | 1020.6 |
| 20260830185532 | 87 | 223 | 1.7 | 8.7 | 0.00 | 0.00 | 0.00 | 63 | 1020.6 |
| 20260830185031 | 86 | 164 | 3.5 | 8.7 | 0.00 | 0.00 | 0.00 | 63 | 1020.7 |
| 20260830184607 | 87 | 71 | 0.9 | 7.8 | 0.00 | 0.00 | 0.00 | 63 | 1020.8 |
| 20260830184029 | 87 | 109 | 4.3 | 9.6 | 0.00 | 0.00 | 0.00 | 62 | 1020.9 |
| 20260830183529 | 88 | 122 | 3.5 | 9.6 | 0.00 | 0.00 | 0.00 | 64 | 1020.9 |
| 20260830183057 | 88 | 117 | 1.7 | 6.1 | 0.00 | 0.00 | 0.00 | 63 | 1021.0 |
| 20260830182531 | 88 | 29 | 1.7 | 7.8 | 0.00 | 0.00 | 0.00 | 63 | 1021.2 |
| 20260830182028 | 88 | 151 | 2.6 | 7.8 | 0.00 | 0.00 | 0.00 | 62 | 1021.2 |
| 20260830181554 | 88 | 150 | 2.6 | 7.0 | 0.00 | 0.00 | 0.00 | 62 | 1021.2 |
| 20260830181033 | 88 | 96 | 1.7 | 8.7 | 0.00 | 0.00 | 0.00 | 63 | 1021.2 |
| 20260830180530 | 87 | 90 | 2.6 | 8.7 | 0.00 | 0.00 | 0.00 | 63 | 1021.3 |
| 20260830180108 | 87 | 88 | 3.5 | 8.7 | 0.00 | 0.00 | 0.00 | 64 | 1021.4 |
| 20260830175531 | 87 | 117 | 1.7 | 9.6 | 0.00 | 0.00 | 0.00 | 64 | 1021.5 |
| 20260830175033 | 87 | 213 | 3.5 | 9.6 | 0.00 | 0.00 | 0.00 | 65 | 1021.5 |
| 20260830174605 | 86 | 75 | 4.3 | 8.7 | 0.00 | 0.00 | 0.00 | 66 | 1021.5 |
| 20260830174032 | 86 | 98 | 2.6 | 7.0 | 0.00 | 0.00 | 0.00 | 68 | 1021.6 |
| 20260830173530 | 86 | 138 | 1.7 | 7.0 | 0.00 | 0.00 | 0.00 | 67 | 1021.7 |
| 20260830173100 | 87 | 121 | 1.7 | 7.0 | 0.00 | 0.00 | 0.00 | 67 | 1021.7 |
| 20260830172528 | 87 | 55 | 2.6 | 7.0 | 0.00 | 0.00 | 0.00 | 67 | 1021.8 |
| 20260830172031 | 86 | 108 | 2.6 | 7.8 | 0.00 | 0.00 | 0.00 | 68 | 1021.9 |
| 20260830171558 | 86 | 80 | 1.7 | 11.3 | 0.00 | 0.00 | 0.00 | 68 | 1021.9 |
| 20260830171030 | 85 | 119 | 3.5 | 11.3 | 0.00 | 0.00 | 0.00 | 68 | 1022.1 |
| 20260830170533 | 85 | 76 | 3.5 | 7.8 | 0.00 | 0.00 | 0.00 | 69 | 1022.1 |
| 20260830170055 | 85 | 144 | 0.9 | 8.7 | 0.00 | 0.00 | 0.00 | 70 | 1022.1 |
| 20260830165533 | 85 | 118 | 2.6 | 8.7 | 0.00 | 0.00 | 0.00 | 70 | 1022.1 |
| 20260830165030 | 85 | 10 | 0.9 | 6.1 | 0.00 | 0.00 | 0.00 | 70 | 1022.2 |
| 20260830164548 | 85 | 0 | 2.6 | 7.0 | 0.00 | 0.00 | 0.00 | 70 | 1022.3 |
| 20260830164032 | 85 | 41 | 1.7 | 7.8 | 0.00 | 0.00 | 0.00 | 71 | 1022.2 |
| 20260830163530 | 84 | 121 | 2.6 | 9.6 | 0.00 | 0.00 | 0.00 | 72 | 1022.3 |
| 20260830163048 | 84 | 82 | 0.9 | 9.6 | 0.00 | 0.00 | 0.00 | 72 | 1022.4 |
| 20260830162528 | 84 | 34 | 2.6 | 9.6 | 0.00 | 0.00 | 0.00 | 72 | 1022.6 |
| 20260830162031 | 83 | 101 | 1.7 | 9.6 | 0.00 | 0.00 | 0.00 | 73 | 1022.6 |
| 20260830161555 | 83 | 121 | 3.5 | 9.6 | 0.00 | 0.00 | 0.00 | 74 | 1022.6 |
| 20260830161029 | 82 | 163 | 1.7 | 7.0 | 0.00 | 0.00 | 0.00 | 75 | 1022.5 |